Temp
64 64 63 63 63 63 63 62 62 63 62 61 61 61 61 62 61 62 62 65 69 71 73 73 73 72 71 71 70 69 68 68 67 67 67 66 66 66 66 66 66 66 66
60 60 62 62 61 62 62 61 61 62 62 61 61 60 60 61 62 62 63 65 67 69 71 73 73 72 72 71 70 69 68 68 67 66 66 66 65 65 65 65 65 65 65
59 59 61 60 61 61 60 61 61 61 62 63 62 61 62 62 62 62 62 64 65 66 68 72 72 72 71 70 70 69 68 67 66 66 65 65 65 65 65 64 64 64 64
58 58 61 61 61 61 60 59 60 60 59 59 59 60 61 62 62 61 61 62 62 64 66 67 70 71 71 70 69 69 68 67 66 65 65 64 64 64 64 64 64 64 64
58 56 57 58 59 61 61 61 60 60 58 57 58 57 58 60 61 62 61 62 63 61 61 66 66 68 69 70 70 69 68 66 65 65 64 64 63 63 63 64 64 64 63
55 54 55 56 57 59 59 59 59 58 57 56 56 54 55 57 60 60 61 61 62 61 61 64 64 64 66 69 69 69 68 66 65 65 64 63 63 63 63 63 64 64 64
54 53 53 54 56 57 58 58 58 57 54 54 52 52 52 54 55 57 59 60 59 60 61 62 62 63 65 67 68 68 67 67 66 65 64 63 63 63 63 63 64 64 64
52 53 52 53 54 57 58 58 57 55 53 54 53 52 50 52 52 52 55 57 57 58 60 61 61 61 62 62 62 66 67 67 66 65 64 63 63 63 63 63 64 64 64
51 52 52 54 54 55 56 57 58 56 52 52 54 53 48 49 49 49 50 51 55 57 57 58 59 59 59 57 61 63 64 65 66 65 64 64 63 62 62 63 63 64 63
50 51 52 53 56 53 54 54 57 57 56 53 53 53 52 51 49 47 48 48 49 52 53 56 57 56 55 55 56 58 61 63 65 66 65 64 63 62 62 62 62 62 61
51 51 51 52 53 53 54 55 54 56 56 56 55 51 50 49 49 48 46 46 46 48 49 51 53 52 53 54 54 56 59 62 64 65 64 63 63 62 61 60 60 60 60
50 50 50 50 53 54 53 53 55 55 56 56 55 52 51 50 48 48 46 45 48 46 48 48 49 49 50 51 53 55 57 59 61 63 63 62 61 60 58 58 58 58 58
49 49 49 48 49 52 54 54 54 54 55 55 54 53 53 52 51 50 48 45 45 44 46 47 47 47 49 48 49 51 53 55 59 61 61 61 59 55 55 55 56 56 55
49 50 50 49 50 51 53 55 55 54 55 55 55 55 53 52 52 49 48 46 42 42 43 43 46 47 47 47 48 49 49 53 55 56 58 57 54 52 52 53 53 53 53
49 49 50 49 50 51 51 53 54 54 55 55 55 54 53 52 52 51 49 49 47 41 42 43 43 45 46 47 48 47 46 50 52 53 54 52 51 50 51 51 50 50 50
46 47 48 49 49 50 52 53 53 54 54 54 54 53 53 50 52 51 50 49 49 48 44 42 41 44 46 46 47 45 45 48 50 51 50 49 49 49 50 49 49 49 49
44 46 47 47 48 49 51 52 53 53 53 53 53 52 52 50 50 49 49 49 48 46 44 39 42 41 43 43 44 43 44 44 46 49 49 48 48 48 49 48 48 48 48
44 46 46 46 47 48 51 52 52 53 53 52 52 52 51 49 48 48 48 48 48 46 42 38 39 39 40 42 40 40 41 43 41 46 48 48 47 47 48 47 47 47 47
42 45 45 45 46 47 49 52 52 52 52 52 52 51 50 49 48 47 47 47 47 45 43 40 37 38 37 38 37 39 39 38 42 44 46 46 46 46 46 46 46 46 46
41 44 44 44 45 46 47 51 51 51 51 51 51 51 50 49 48 47 47 46 45 43 41 40 37 36 35 36 37 35 34 35 36 41 42 42 43 43 44 45 44 43 43
41 44 43 43 44 45 47 50 50 50 50 49 49 49 49 49 48 48 46 44 43 41 40 38 34 34 33 33 34 34 33 34 33 34 35 35 32 31 32 36 38 41 43
42 42 41 41 42 44 46 48 49 48 48 47 46 46 47 46 47 48 47 46 45 41 38 37 35 35 34 35 34 34 32 31 30 33 32 31 29 29 30 30 38 41 42
40 40 39 40 40 42 45 47 48 46 45 45 44 43 43 44 45 45 46 46 45 46 45 41 37 36 34 35 35 33 31 31 31 30 29 26 27 27 29 32 37 40 41
39 38 39 39 40 42 44 46 47 44 42 42 43 43 42 42 43 43 39 37 37 38 40 41 39 37 36 37 37 35 32 28 28 29 28 22 25 26 28 29 37 39 39
38 37 39 39 39 41 44 45 43 40 39 38 40 42 41 42 43 42 37 34 34 36 41 41 41 41 40 40 37 33 29 27 24 25 27 24 26 26 26 27 31 36 36
37 38 38 39 41 41 44 44 41 38 35 36 37 40 43 41 43 41 37 35 32 33 33 32 32 33 34 37 37 31 30 24 23 20 26 23 25 24 20 28 27 28 27
MSLP
1016.04 1015.93 1015.82 1015.88 1015.88 1016.10 1016.62 1016.99 1017.28 1017.60 1017.81 1018.03 1018.21 1018.24 1018.39 1018.51 1018.61 1018.77 1018.96 1018.97 1018.83 1019.13 1019.35 1019.65 1020.12 1020.64 1021.01 1021.25 1021.72 1022.19 1022.73 1023.09 1023.38 1023.65 1023.71 1023.83 1024.06 1024.21 1024.41 1024.47 1024.46 1024.53 1024.51
1016.28 1016.17 1016.07 1016.12 1016.05 1014.50 1016.09 1016.85 1017.66 1017.64 1017.86 1018.11 1018.08 1018.22 1018.27 1018.37 1018.44 1018.56 1018.69 1018.74 1018.89 1018.99 1019.34 1019.52 1020.03 1020.60 1021.03 1021.41 1021.86 1022.28 1022.80 1023.08 1023.51 1023.78 1024.01 1024.18 1024.31 1024.35 1024.50 1024.59 1024.71 1024.75 1024.68
1016.42 1016.34 1016.16 1016.27 1016.20 1015.86 1015.63 1016.50 1017.03 1017.37 1017.37 1016.85 1017.21 1017.57 1017.40 1017.89 1018.25 1018.28 1018.36 1018.50 1018.78 1019.01 1019.35 1019.38 1019.84 1020.35 1020.85 1021.42 1021.86 1022.28 1022.68 1023.11 1023.53 1023.88 1024.13 1024.36 1024.57 1024.69 1024.73 1024.77 1024.92 1024.96 1024.86
1016.75 1016.51 1016.45 1016.30 1016.24 1016.30 1016.44 1016.67 1017.05 1017.41 1017.13 1017.09 1017.32 1017.55 1017.73 1017.52 1017.66 1018.02 1018.13 1018.37 1018.57 1018.95 1019.17 1019.67 1019.79 1020.12 1020.67 1021.18 1021.74 1022.19 1022.73 1023.20 1023.61 1023.86 1024.13 1024.37 1024.61 1024.80 1024.87 1024.93 1025.04 1025.09 1025.05
1017.04 1016.94 1016.68 1016.60 1016.35 1016.50 1016.66 1017.11 1017.41 1017.24 1016.83 1017.05 1017.45 1017.75 1017.44 1017.65 1017.56 1017.75 1017.83 1018.08 1018.23 1018.77 1019.17 1019.47 1019.90 1020.27 1020.63 1021.11 1021.54 1022.03 1022.64 1023.14 1023.59 1023.88 1024.12 1024.29 1024.44 1024.70 1024.86 1024.91 1024.96 1024.99 1025.01
1017.17 1017.03 1016.80 1016.61 1016.50 1016.54 1016.65 1016.63 1016.66 1016.77 1016.82 1017.27 1017.58 1017.96 1017.76 1017.51 1017.34 1017.69 1017.63 1017.91 1018.04 1018.36 1018.84 1019.29 1019.83 1020.32 1020.48 1021.00 1021.20 1021.72 1022.45 1023.06 1023.40 1023.73 1023.99 1024.16 1024.39 1024.49 1024.61 1024.69 1024.82 1024.85 1024.68
1017.40 1017.11 1016.89 1016.70 1016.53 1016.49 1016.27 1016.30 1016.47 1016.66 1017.16 1017.32 1017.56 1017.95 1018.05 1018.30 1017.54 1017.58 1017.58 1017.71 1018.03 1018.36 1018.63 1019.03 1019.71 1020.14 1020.40 1020.78 1021.08 1021.53 1022.32 1022.84 1023.33 1023.55 1023.80 1024.07 1024.25 1024.24 1024.34 1024.43 1024.46 1024.62 1024.60
1017.49 1017.11 1016.84 1016.44 1016.20 1016.12 1016.14 1016.23 1016.32 1016.23 1016.83 1017.21 1017.59 1018.10 1018.00 1018.28 1017.81 1017.71 1017.77 1017.77 1018.07 1018.35 1018.63 1018.99 1019.32 1019.74 1020.26 1020.60 1020.98 1021.51 1022.08 1022.54 1023.06 1023.54 1023.78 1023.92 1024.22 1024.32 1024.38 1024.44 1024.26 1024.32 1024.43
1017.57 1017.14 1016.72 1016.29 1015.91 1015.89 1015.77 1015.94 1016.04 1016.10 1016.58 1017.10 1017.25 1017.26 1017.49 1017.46 1017.95 1017.89 1017.98 1018.10 1017.99 1018.33 1018.52 1018.95 1019.28 1019.49 1019.94 1020.45 1020.92 1021.44 1021.95 1022.48 1022.75 1023.21 1023.66 1023.95 1024.09 1024.24 1024.30 1024.37 1024.35 1024.43 1024.49
1017.65 1017.09 1016.66 1016.21 1015.79 1015.66 1015.64 1015.57 1015.65 1015.66 1015.94 1016.44 1017.10 1016.92 1016.98 1016.88 1017.47 1017.80 1017.94 1018.48 1018.60 1018.45 1018.65 1018.85 1018.96 1019.45 1019.93 1020.37 1020.78 1021.29 1021.85 1022.34 1022.63 1022.87 1023.41 1023.80 1024.01 1024.18 1024.23 1024.29 1024.35 1024.64 1024.71
1017.85 1017.14 1016.70 1016.24 1015.90 1015.53 1015.33 1015.32 1015.47 1015.34 1015.42 1015.88 1016.09 1016.63 1016.61 1017.09 1017.35 1017.70 1018.38 1018.51 1019.10 1018.81 1018.98 1019.09 1019.02 1019.42 1019.89 1020.16 1020.78 1021.19 1021.60 1022.21 1022.65 1022.87 1023.22 1023.47 1023.89 1024.17 1024.34 1024.46 1024.46 1024.63 1024.67
1018.01 1017.23 1016.77 1016.41 1015.89 1015.48 1015.17 1014.91 1014.92 1014.99 1015.06 1015.20 1015.46 1015.63 1015.73 1016.26 1017.10 1017.37 1017.80 1018.55 1018.66 1018.94 1019.19 1019.38 1019.34 1019.71 1020.39 1020.64 1020.46 1020.88 1021.47 1022.08 1022.72 1022.95 1023.23 1023.44 1023.73 1024.08 1024.53 1024.84 1024.62 1024.72 1024.63
1017.82 1017.33 1016.92 1016.46 1015.96 1015.38 1015.04 1014.74 1014.55 1014.51 1014.62 1014.76 1014.86 1015.20 1015.18 1015.44 1015.98 1016.64 1017.14 1017.83 1018.46 1019.07 1019.42 1019.46 1019.64 1020.03 1020.34 1020.49 1020.94 1020.94 1021.48 1022.17 1022.60 1022.81 1023.21 1023.42 1023.79 1024.52 1024.83 1024.88 1024.73 1024.74 1024.63
1017.80 1017.13 1016.73 1016.32 1015.75 1015.22 1014.71 1014.28 1013.94 1013.87 1014.04 1014.21 1014.30 1014.48 1014.85 1015.11 1015.45 1015.96 1016.61 1017.31 1018.30 1018.71 1019.31 1019.39 1019.82 1019.83 1020.05 1020.65 1020.72 1021.36 1021.90 1022.32 1022.55 1022.89 1023.36 1023.50 1024.30 1024.64 1024.85 1024.83 1024.88 1024.87 1024.75
1017.71 1016.95 1016.33 1015.90 1015.39 1014.83 1014.48 1014.04 1013.50 1013.18 1013.32 1013.49 1013.62 1013.88 1014.12 1014.46 1014.81 1015.38 1015.74 1016.12 1016.61 1018.23 1018.93 1019.32 1019.53 1019.57 1020.13 1020.51 1020.84 1021.34 1021.82 1022.46 1022.50 1023.10 1023.55 1023.92 1024.48 1024.58 1024.66 1024.81 1024.98 1024.92 1024.91
1017.41 1016.75 1016.06 1015.49 1014.86 1014.28 1013.79 1013.34 1012.91 1012.52 1012.50 1012.70 1012.96 1013.17 1013.56 1013.98 1014.43 1014.89 1015.42 1015.59 1016.10 1016.81 1018.08 1018.87 1019.22 1019.59 1019.89 1020.38 1020.83 1021.39 1021.91 1022.36 1022.55 1023.16 1023.71 1024.15 1024.44 1024.53 1024.44 1024.75 1024.95 1024.89 1024.85
1017.17 1016.51 1015.70 1015.03 1014.37 1013.59 1013.05 1012.40 1012.11 1011.88 1011.81 1011.96 1012.23 1012.58 1012.90 1013.37 1013.90 1014.57 1015.09 1015.48 1016.01 1016.42 1017.56 1019.04 1019.25 1019.72 1020.05 1020.47 1020.91 1021.50 1021.88 1022.41 1022.69 1023.16 1023.60 1024.05 1024.30 1024.41 1024.43 1024.67 1024.81 1024.78 1024.70
1016.69 1015.97 1015.23 1014.53 1013.81 1013.01 1012.09 1011.41 1011.26 1011.13 1011.19 1011.32 1011.60 1011.97 1012.29 1012.95 1013.54 1014.03 1014.66 1015.14 1015.69 1016.03 1017.08 1018.47 1019.24 1019.96 1020.07 1020.56 1020.78 1021.53 1022.09 1022.62 1023.01 1023.28 1023.55 1023.92 1024.17 1024.26 1024.40 1024.53 1024.56 1024.60 1024.56
1016.21 1015.33 1014.75 1014.01 1013.23 1012.49 1011.58 1010.39 1010.36 1010.33 1010.46 1010.64 1011.00 1011.12 1011.58 1012.34 1013.03 1013.73 1014.23 1014.65 1015.33 1015.91 1016.63 1017.50 1018.83 1019.70 1020.44 1020.88 1021.24 1021.68 1022.35 1022.94 1023.15 1023.34 1023.66 1023.96 1024.12 1024.11 1024.24 1024.39 1024.38 1024.35 1024.39
1015.67 1014.77 1014.23 1013.50 1012.74 1012.05 1011.09 1009.93 1009.66 1009.71 1009.75 1010.13 1010.36 1010.77 1011.07 1011.70 1012.37 1013.05 1013.75 1014.22 1015.00 1015.79 1016.71 1017.31 1018.39 1019.27 1020.14 1020.87 1021.18 1021.88 1022.75 1023.14 1023.45 1023.49 1023.86 1024.04 1024.13 1024.18 1024.27 1024.36 1024.36 1024.47 1024.39
1015.09 1014.27 1013.60 1012.81 1012.09 1011.40 1010.44 1009.45 1009.00 1009.03 1009.29 1009.59 1009.80 1010.33 1010.80 1011.16 1011.71 1012.53 1013.07 1014.01 1014.57 1015.67 1016.44 1017.22 1018.08 1019.14 1019.88 1020.68 1020.90 1021.64 1022.67 1023.23 1023.86 1023.94 1024.12 1024.25 1024.43 1024.54 1024.58 1024.54 1024.50 1024.41 1024.35
1014.34 1013.67 1012.99 1012.29 1011.45 1010.71 1009.90 1009.22 1008.42 1008.62 1008.77 1009.16 1009.67 1010.12 1010.49 1010.95 1011.65 1012.16 1012.76 1013.42 1014.12 1015.08 1016.00 1016.80 1017.72 1018.41 1019.20 1019.79 1020.65 1021.48 1022.56 1023.36 1024.08 1024.08 1024.24 1024.44 1024.58 1024.61 1024.68 1024.62 1024.51 1024.37 1024.12
1013.70 1013.05 1012.30 1011.61 1010.84 1010.06 1009.40 1008.71 1008.16 1008.22 1008.35 1008.75 1009.13 1010.09 1010.45 1010.91 1011.59 1012.21 1012.97 1013.61 1014.20 1014.84 1015.32 1015.90 1016.98 1017.84 1018.75 1019.37 1020.17 1021.32 1022.10 1022.84 1023.46 1024.12 1024.33 1024.62 1024.87 1024.77 1024.39 1024.40 1024.47 1024.26 1024.10
1013.10 1012.42 1011.59 1010.93 1010.24 1009.42 1008.90 1008.37 1008.02 1008.04 1008.28 1008.80 1009.20 1009.85 1010.35 1011.02 1011.72 1012.48 1013.38 1014.31 1015.09 1015.40 1015.78 1016.12 1016.65 1017.53 1018.17 1019.07 1019.80 1020.51 1021.67 1023.03 1023.84 1024.32 1024.44 1024.82 1024.91 1024.67 1024.43 1024.38 1024.23 1024.11 1024.05
1012.52 1011.81 1011.02 1010.36 1009.67 1008.79 1008.38 1008.13 1008.00 1008.19 1008.64 1009.22 1009.54 1009.89 1010.43 1011.06 1011.89 1012.78 1013.55 1014.63 1015.66 1016.37 1016.46 1016.67 1017.17 1017.86 1018.51 1019.25 1020.01 1020.86 1022.19 1022.97 1024.04 1024.42 1024.59 1024.95 1024.92 1024.84 1024.53 1024.41 1024.29 1024.24 1024.10
1011.98 1011.25 1010.54 1009.92 1009.12 1008.29 1007.82 1007.69 1008.04 1008.44 1009.01 1009.51 1010.06 1010.36 1010.80 1011.34 1012.21 1012.93 1013.66 1014.71 1015.97 1016.95 1017.11 1017.83 1018.47 1019.23 1019.78 1020.16 1020.60 1021.05 1021.82 1022.79 1023.74 1024.59 1024.67 1024.90 1025.05 1025.16 1025.00 1024.51 1024.50 1024.40 1024.26
Wind_Speed
3 3 2 2 4 4 2 2 2 2 3 4 4 5 5 5 5 3 3 10 13 16 17 18 16 16 17 17 14 13 12 12 11 9 9 8 7 7 7 7 7 7 5
3 2 1 2 1 7 5 4 3 3 4 4 5 5 5 5 5 6 4 6 12 15 17 19 19 17 16 14 14 14 13 12 11 10 8 8 7 7 7 6 6 5 4
4 4 1 2 2 4 9 6 6 4 5 7 7 7 8 7 5 6 5 6 6 13 16 19 20 19 18 17 15 15 14 13 11 10 9 7 6 5 5 5 4 3 4
6 4 3 2 2 2 4 5 7 7 5 2 2 3 4 5 6 6 5 4 5 6 13 18 19 21 20 18 17 15 14 13 12 11 9 8 6 4 4 3 3 1 3
7 5 4 3 4 4 4 6 7 6 4 2 3 3 3 4 6 5 6 8 8 7 5 14 15 16 18 18 17 16 16 15 13 12 10 9 7 5 3 2 1 1 1
6 5 4 5 4 5 4 3 5 2 1 3 1 2 3 2 4 6 6 4 7 9 8 8 8 9 15 18 19 18 17 16 15 13 11 9 7 6 4 4 4 3 4
7 6 4 4 3 6 7 6 2 4 3 4 3 2 1 5 2 2 3 4 6 8 8 8 7 6 9 17 17 18 18 16 15 13 12 10 8 7 6 5 4 6 3
7 6 6 6 4 6 7 8 6 2 1 4 2 1 3 2 1 2 1 4 5 3 6 8 10 8 8 6 8 17 18 17 15 13 11 9 7 6 5 5 5 5 6
7 6 7 6 5 4 6 8 8 8 5 5 5 3 3 4 3 2 2 1 5 4 4 6 8 8 8 5 9 12 14 15 14 12 10 9 7 5 5 5 5 7 7
8 6 7 7 6 4 4 5 7 6 4 4 4 4 0 1 3 0 2 0 2 3 3 3 6 6 6 5 8 10 12 10 13 11 10 8 6 6 5 5 5 8 9
10 8 6 6 6 4 4 5 6 8 6 6 6 2 3 2 1 2 2 2 2 1 1 2 2 4 3 7 7 9 12 13 11 11 10 8 7 5 4 3 5 7 9
10 10 7 6 8 7 6 5 6 8 8 8 6 4 4 4 3 3 3 1 2 1 2 1 3 4 2 3 10 16 13 11 12 11 9 7 5 3 2 4 6 7 7
10 12 11 10 8 9 8 6 6 6 7 9 9 6 4 4 4 3 2 2 2 1 2 1 3 3 4 5 2 9 13 12 12 9 7 6 3 2 2 5 5 6 7
9 12 14 12 11 10 11 9 7 6 7 8 11 9 6 5 4 3 5 4 2 1 0 2 2 4 6 4 8 10 7 11 7 7 8 3 4 2 3 4 5 6 7
9 12 13 14 15 13 12 12 8 8 8 8 9 9 8 6 6 5 4 4 5 5 6 4 3 4 4 6 9 7 6 11 10 8 5 4 3 3 3 4 5 6 7
11 13 13 13 13 13 12 13 10 9 9 8 7 9 9 5 7 5 5 3 2 4 3 2 1 2 6 5 9 6 6 11 11 9 7 5 4 5 5 5 6 6 8
11 13 13 13 14 13 14 12 11 11 11 11 9 10 10 7 6 6 5 4 4 3 3 1 2 1 4 7 6 5 6 4 5 9 7 6 5 5 6 7 7 8 8
12 13 14 13 14 13 14 12 11 9 11 11 11 10 9 6 7 6 6 7 6 5 4 5 2 2 2 3 6 7 5 4 4 7 8 6 5 6 7 7 7 8 8
12 15 15 13 13 14 15 13 12 11 10 11 11 11 10 10 8 7 6 6 5 4 3 4 4 2 2 2 4 5 5 4 2 4 5 4 4 4 5 6 7 7 6
13 14 13 14 13 14 13 10 8 8 8 9 9 9 8 10 10 9 7 8 7 6 4 5 2 4 3 3 4 5 3 2 2 2 2 2 2 3 5 5 3 5 6
13 12 14 14 13 12 9 11 10 10 11 9 7 8 8 10 11 11 7 7 8 5 6 5 3 3 3 5 7 4 3 3 1 1 1 1 0 1 1 2 3 5 8
14 12 13 13 13 10 17 18 8 5 8 8 8 5 6 10 10 14 12 15 12 10 6 5 3 5 5 6 5 7 5 3 3 1 1 1 1 0 2 1 6 8 6
13 13 14 12 13 12 19 16 12 6 7 7 8 6 5 5 8 7 11 11 10 11 9 7 8 6 7 8 8 7 3 2 2 2 2 1 0 2 1 2 7 6 5
13 13 13 12 12 10 16 15 10 5 5 5 7 8 8 9 9 11 12 11 9 7 5 4 7 7 6 9 8 4 5 5 4 3 1 1 1 2 2 2 6 1 7
12 13 11 11 11 11 14 14 7 5 6 6 5 8 9 10 20 22 14 13 11 9 14 19 19 17 17 16 11 9 5 5 2 1 3 2 1 2 1 2 2 4 7
12 11 10 10 12 11 15 11 9 6 7 7 5 8 15 15 22 21 15 15 14 9 12 12 10 14 13 12 11 5 5 4 3 2 1 2 2 3 3 1 2 2 3
Wind_Direction
348 312 292 286 158 131 95 62 95 191 177 170 187 200 191 197 192 185 205 224 195 180 174 163 162 155 151 157 155 149 149 156 141 149 140 131 126 119 106 98 85 81 71
344 7 128 213 302 100 156 76 304 200 210 195 194 219 210 222 198 196 203 212 213 181 179 166 161 160 161 157 159 153 157 156 155 147 141 137 137 133 124 112 91 93 71
346 335 239 204 152 165 131 185 203 256 242 202 205 210 191 201 216 205 191 193 206 183 178 177 164 164 164 162 161 161 162 162 156 153 149 147 144 138 129 108 95 86 62
343 334 300 215 156 170 177 188 201 223 230 256 252 223 208 199 198 206 181 182 163 173 176 185 174 168 169 171 164 168 167 162 164 161 158 153 152 149 141 132 104 81 33
349 346 314 252 174 198 209 206 214 222 208 219 233 256 185 198 199 197 187 184 165 166 167 184 174 175 170 170 173 169 171 171 171 169 165 163 162 165 176 185 185 234 345
341 349 326 298 245 204 209 202 219 170 193 186 140 243 326 253 201 204 190 185 174 167 155 160 167 178 177 176 178 173 175 177 178 176 174 172 173 178 190 210 231 245 270
334 329 314 297 258 245 226 197 223 179 188 180 113 4 55 298 156 163 166 162 170 171 163 160 172 173 178 183 180 176 180 180 184 182 181 183 188 189 200 215 234 257 303
324 324 313 300 271 252 245 227 191 139 135 176 208 128 225 207 266 111 235 154 149 152 175 176 172 175 175 176 179 179 184 183 187 190 189 188 198 211 230 245 258 285 286
313 313 308 299 287 240 233 229 220 181 179 195 204 200 196 194 152 332 143 353 143 170 172 190 182 179 175 158 170 176 183 188 190 191 197 201 206 224 242 260 277 289 304
308 310 308 310 293 267 232 219 217 202 183 190 225 206 353 122 159 116 18 177 325 175 158 187 177 182 163 156 147 153 172 183 197 195 202 210 216 233 251 272 307 312 311
314 312 315 312 310 280 253 221 218 207 192 215 209 202 132 165 120 124 165 189 259 15 72 148 152 139 168 162 158 154 148 178 200 205 209 207 227 247 269 298 307 306 309
320 315 316 323 313 308 271 239 227 217 205 210 209 199 178 156 188 161 136 161 217 173 130 149 124 138 134 192 163 149 145 160 208 210 212 219 225 239 275 296 308 302 305
321 314 315 318 312 303 289 251 221 219 220 227 204 207 206 177 151 149 118 134 135 144 157 142 146 144 142 130 102 137 146 176 208 205 218 225 188 145 256 281 294 301 305
310 310 306 299 298 288 297 284 245 218 219 224 222 210 197 183 175 169 167 157 126 115 231 146 171 176 154 152 148 144 156 180 174 185 225 196 149 198 259 282 295 297 300
303 304 303 295 293 288 281 274 257 227 220 221 218 206 205 190 184 179 175 172 145 171 201 198 182 156 155 154 168 161 156 179 170 195 185 156 192 231 261 248 280 293 299
305 306 294 294 287 282 277 261 255 236 217 222 217 207 202 180 181 179 173 183 162 152 175 138 159 161 162 156 170 146 153 171 173 175 188 194 216 240 244 234 268 285 290
298 302 297 294 292 278 274 252 248 236 220 215 207 204 198 177 179 177 174 171 172 139 138 107 101 99 149 152 152 129 148 147 154 183 189 206 232 252 253 236 264 286 295
297 301 300 293 291 282 277 248 243 226 221 218 213 203 192 169 168 162 176 184 197 160 127 148 128 137 93 146 136 131 138 132 124 176 205 215 239 254 256 242 266 288 293
298 301 306 292 294 290 291 250 227 226 214 211 210 190 175 180 170 169 178 173 165 146 138 136 132 118 110 155 113 103 118 105 133 161 215 228 244 251 241 253 273 281 301
297 298 300 291 290 290 290 254 221 216 208 211 195 201 172 173 171 173 175 162 153 144 138 127 108 107 118 92 103 125 121 92 111 106 149 208 240 283 283 275 312 321 311
294 292 296 291 290 287 285 266 222 212 210 200 186 180 183 175 168 174 157 158 141 146 150 140 115 125 128 151 169 133 114 118 66 127 187 229 36 356 295 345 329 309 297
292 297 292 288 287 285 283 286 214 209 191 184 174 158 169 158 171 166 164 162 165 156 154 138 145 156 149 147 133 145 130 129 189 159 158 248 74 241 270 280 291 299 284
289 298 291 285 283 283 287 295 253 187 180 166 156 152 137 130 136 135 147 146 148 160 160 149 154 153 146 163 144 141 133 122 130 108 108 255 33 263 235 317 292 258 339
295 297 289 286 283 281 285 286 261 154 138 134 149 153 142 133 135 127 109 93 78 69 99 118 124 122 116 140 144 128 126 101 84 77 109 156 322 265 319 285 249 83 358
296 296 286 284 282 282 281 272 157 120 115 109 123 130 131 131 134 130 116 107 96 90 94 98 101 108 118 123 121 117 129 132 111 118 34 128 23 304 307 290 266 319 347
294 290 294 285 279 270 267 172 138 129 121 113 96 114 131 134 139 134 123 125 116 116 106 90 75 72 69 88 93 85 137 120 111 60 278 108 27 25 337 329 296 307 328